DW3201 Weather Reports


Display with metric or nautical units.
time (UTC)temp
F
wind
direction
speed
MPH
gust
MPH
rain 1hr
in
rain 24hr
in
rain mn
in
humidity
%
barometer
mb
20260906003102 70 41 3.0 5.0 0.00 0.00 0.00 88 1016.7
20260906001606 71 79 5.0 13.0 0.00 0.00 0.00 87 1016.8
20260906000100 72 36 7.0 12.0 0.00 0.00 0.00 86 1016.4
20260905234556 72 90 7.0 13.0 0.00 0.00 0.00 86 1016.4
20260905233103 73 50 7.0 14.0 0.00 0.00 0.00 85 1016.3
20260905231607 73 69 4.0 11.0 0.00 0.00 0.00 85 1016.6
20260905224603 75 92 3.0 8.0 0.00 0.00 0.00 80 1016.2
20260905223100 75 50 3.0 9.0 0.00 0.00 0.00 80 1016.1
20260905221600 75 75 5.0 10.0 0.00 0.00 0.00 80 1016.0
20260905220103 76 68 5.0 15.0 0.00 0.00 0.00 78 1015.9
20260905214609 76 6 5.0 13.0 0.00 0.00 0.00 77 1015.7
20260905213106 76 37 6.0 13.0 0.00 0.00 0.00 79 1015.5
20260905211612 77 92 6.0 17.0 0.00 0.00 0.00 80 1015.3
20260905210120 77 58 4.0 11.0 0.00 0.00 0.00 80 1015.2
20260905204601 77 89 6.0 14.0 0.00 0.00 0.00 79 1015.3
20260905203104 78 115 7.0 13.0 0.00 0.00 0.00 80 1015.3
20260905201604 79 53 7.0 12.0 0.00 0.00 0.00 74 1015.3
20260905200127 79 36 3.0 11.0 0.00 0.00 0.00 71 1015.3
20260905194601 80 0 2.0 5.0 0.00 0.00 0.00 72 1015.4
20260905193108 80 61 4.0 12.0 0.00 0.00 0.00 71 1015.4
20260905191602 79 105 3.0 11.0 0.00 0.00 0.00 72 1015.5
20260905190104 79 79 3.0 7.0 0.00 0.00 0.00 74 1015.5
20260905184609 79 25 1.0 5.0 0.00 0.00 0.00 75 1015.5
20260905183108 79 73 4.0 8.0 0.00 0.00 0.00 77 1015.6
20260905181602 79 44 3.0 7.0 0.00 0.00 0.00 77 1015.6
20260905174606 77 0 0.0 1.0 0.00 0.00 0.00 82 1015.9
20260905173104 76 58 2.0 3.0 0.00 0.00 0.00 83 1016.1
20260905171603 75 82 0.0 3.0 0.00 0.00 0.00 84 1016.1
20260905170101 75 46 1.0 4.0 0.00 0.00 0.00 85 1016.0
20260905164602 75 46 2.0 4.0 0.00 0.00 0.00 85 1016.1
20260905163058 75 94 2.0 5.0 0.00 0.00 0.00 85 1016.1
20260905161604 75 50 0.0 2.0 0.00 0.00 0.00 86 1016.1
20260905160100 74 0 0.0 6.0 0.00 0.00 0.00 87 1016.2
20260905154605 73 82 1.0 5.0 0.00 0.19 0.00 90 1016.1
20260905153105 73 90 2.0 8.0 0.00 0.19 0.00 90 1016.0
20260905151633 73 59 4.0 10.0 0.00 0.19 0.00 91 1016.0
20260905150104 73 105 2.0 6.0 0.00 0.19 0.00 91 1015.7
20260905144559 72 44 2.0 5.0 0.00 0.19 0.00 91 1015.5
20260905143105 72 41 2.0 6.0 0.00 0.19 0.00 91 1015.4
20260905141602 72 77 2.0 7.0 0.00 0.19 0.00 91 1015.1
20260905140058 72 72 7.0 12.0 0.00 0.19 0.00 92 1015.0
20260905134600 72 79 3.0 7.0 0.00 0.19 0.00 93 1014.9
20260905133056 71 60 1.0 6.0 0.00 0.19 0.00 94 1015.1
20260905131604 71 44 2.0 6.0 0.00 0.19 0.00 95 1015.2
20260905130059 70 86 1.0 3.0 0.00 0.19 0.00 95 1015.6
20260905124601 70 78 1.0 4.0 0.00 0.19 0.00 95 1015.0
20260905123114 70 65 2.0 6.0 0.00 0.19 0.00 96 1014.9
20260905121559 70 81 4.0 9.0 0.00 0.19 0.00 96 1014.4
20260905120106 70 32 3.0 6.0 0.00 0.19 0.00 96 1014.2
20260905114605 69 56 3.0 7.0 0.00 0.20 0.00 96 1014.1
20260905113107 69 33 2.0 6.0 0.00 0.20 0.00 96 1013.7
20260905111604 69 94 3.0 7.0 0.00 0.20 0.00 96 1013.4
20260905110058 69 86 2.0 5.0 0.00 0.20 0.00 96 1013.3
20260905104605 69 47 1.0 4.0 0.00 0.24 0.00 96 1013.1
20260905103106 69 68 1.0 3.0 0.00 0.24 0.00 96 1013.2
20260905101559 69 81 0.0 2.0 0.00 0.24 0.00 96 1013.2
20260905100109 69 0 0.0 1.0 0.00 0.24 0.00 96 1013.0
20260905094607 69 0 0.0 0.0 0.00 0.24 0.00 96 1013.0
20260905093104 69 0 0.0 1.0 0.00 0.24 0.00 96 1013.0
20260905091604 69 0 0.0 1.0 0.00 0.24 0.00 96 1013.0
20260905090059 69 0 0.0 2.0 0.00 0.24 0.00 96 1013.1
20260905084609 69 0 0.0 0.0 0.00 0.24 0.00 95 1012.9
20260905083102 69 0 0.0 0.0 0.00 0.24 0.00 95 1013.0
20260905081557 69 0 0.0 0.0 0.00 0.24 0.00 95 1012.9
20260905080139 69 0 0.0 0.0 0.00 0.24 0.00 95 1013.0
20260905074557 70 0 0.0 0.0 0.00 0.24 0.00 95 1013.1
20260905073100 70 0 0.0 0.0 0.00 0.24 0.00 95 1013.1
20260905071606 70 0 0.0 1.0 0.00 0.24 0.00 95 1013.1
20260905070101 70 0 0.0 2.0 0.00 0.24 0.00 95 1013.0
20260905064603 70 0 0.0 0.0 0.00 0.24 0.00 94 1013.0
20260905063059 71 0 0.0 0.0 0.00 0.24 0.00 94 1012.9
20260905061600 72 0 0.0 0.0 0.00 0.24 0.00 95 1013.0
20260905060108 71 0 0.0 0.0 0.00 0.24 0.00 94 1013.0
20260905054606 71 0 0.0 1.0 0.00 0.24 0.00 94 1013.2
20260905053110 72 0 0.0 1.0 0.00 0.24 0.00 93 1013.2
20260905051559 72 72 0.0 1.0 0.00 0.24 0.00 93 1013.4
20260905044607 72 50 0.0 1.0 0.00 0.24 0.24 93 1013.6
20260905043111 72 0 0.0 1.0 0.00 0.24 0.24 92 1013.5
20260905041602 73 0 0.0 2.0 0.00 0.24 0.24 93 1013.4
20260905040105 73 84 0.0 1.0 0.00 0.24 0.24 92 1013.3
20260905034603 73 0 1.0 3.0 0.00 0.24 0.24 92 1013.2
20260905033058 73 93 1.0 3.0 0.00 0.24 0.24 92 1013.4
20260905031557 73 110 3.0 4.0 0.00 0.24 0.24 91 1013.5
20260905030100 74 82 1.0 4.0 0.00 0.24 0.24 91 1013.5
20260905024557 74 65 1.0 5.0 0.00 0.24 0.24 90 1013.6
20260905023101 75 83 2.0 5.0 0.00 0.24 0.24 89 1013.7
20260905021600 75 88 3.0 5.0 0.00 0.24 0.24 88 1013.7
20260905020058 75 89 3.0 6.0 0.00 0.24 0.24 88 1013.3
20260905014557 76 82 1.0 3.0 0.00 0.24 0.24 88 1013.4
20260905013100 76 58 5.0 9.0 0.00 0.24 0.24 87 1013.3
20260905011619 77 68 5.0 8.0 0.00 0.24 0.24 87 1013.5
20260905010058 77 99 6.0 9.0 0.00 0.24 0.24 86 1013.0
20260905004600 80 79 6.0 7.0 0.00 0.24 0.24 87 1012.5